When you browse on this site, cookies collect data to enhance your experience and personalize the content and advertising you see.
Visit our Privacy Policy to learn more. By continuing to use the site, you agree to this use of cookies and data.
  • In Austria
  • List of Countries
  • For 7 days
  • Water Temperature
  • Satellite Maps
  • Weather Map
  • News
  • Weather Widgets
  • user-avatar
    Login

    Hourly Weather Abovyan

    Today, 23 April, Tuesday

    Time Temperature Precipitation Wind Pressure Humidity
    00:00 +4°C° 0.2 mm 2 mps 671 mmHg 64%
    01:00 +4°C° 0.2 mm 2 mps 671 mmHg 65%
    02:00 +5°C° 0.2 mm 1 mps 671 mmHg 66%
    03:00 +5°C° 0.2 mm 1 mps 671 mmHg 67%
    04:00 +5°C° 0.2 mm 1 mps 672 mmHg 67%
    05:00 +5°C° 0.2 mm 1 mps 672 mmHg 67%
    06:00 +5°C° 0.2 mm 1 mps 673 mmHg 67%
    07:00 +6°C° 0.1 mm 1 mps 673 mmHg 62%
    08:00 +7°C° 0.1 mm 1 mps 673 mmHg 57%
    09:00 +7°C° 0.1 mm 2 mps 673 mmHg 52%
    10:00 +8°C° 0.1 mm 2 mps 673 mmHg 50%
    11:00 +9°C° 0.1 mm 2 mps 673 mmHg 48%
    12:00 +10°C° 0.1 mm 2 mps 674 mmHg 45%
    13:00 +12°C° 0.1 mm 2 mps 674 mmHg 45%
    14:00 +12°C° 0.1 mm 2 mps 673 mmHg 44%
    15:00 +12°C° 0.1 mm 2 mps 673 mmHg 44%
    16:00 +12°C° 0.2 mm 1 mps 674 mmHg 45%
    17:00 +11°C° 0.2 mm 1 mps 674 mmHg 47%
    18:00 +11°C° 0.2 mm 1 mps 674 mmHg 49%
    19:00 +10°C° 0.2 mm 1 mps 674 mmHg 52%
    20:00 +9°C° 0.2 mm 1 mps 675 mmHg 54%
    21:00 +9°C° 0.2 mm 1 mps 676 mmHg 56%
    22:00 +8°C° 0.1 mm 1 mps 676 mmHg 58%
    23:00 +7°C° 0.1 mm 1 mps 676 mmHg 60%

    Tomorrow, 24 April, Wednesday

    Time Temperature Precipitation Wind Pressure Humidity
    00:00 +7°C° 0.1 mm 1 mps 676 mmHg 62%
    01:00 +6°C° 0.1 mm 1 mps 676 mmHg 65%
    02:00 +6°C° 0.1 mm 1 mps 677 mmHg 67%
    03:00 +5°C° 0.1 mm 1 mps 677 mmHg 69%
    04:00 +5°C° 0 mm 1 mps 677 mmHg 69%
    05:00 +5°C° 0 mm 1 mps 677 mmHg 70%
    06:00 +6°C° 0 mm 1 mps 677 mmHg 70%
    07:00 +7°C° 0 mm 1 mps 677 mmHg 64%
    08:00 +8°C° 0 mm 1 mps 677 mmHg 58%
    09:00 +9°C° 0 mm 2 mps 677 mmHg 53%
    10:00 +9°C° 0 mm 2 mps 677 mmHg 50%
    11:00 +10°C° 0 mm 2 mps 676 mmHg 47%
    12:00 +12°C° 0 mm 2 mps 676 mmHg 44%
    13:00 +13°C° 0 mm 2 mps 676 mmHg 43%
    14:00 +13°C° 0 mm 2 mps 675 mmHg 42%
    15:00 +14°C° 0 mm 2 mps 675 mmHg 41%
    16:00 +13°C° 0 mm 2 mps 675 mmHg 42%
    17:00 +13°C° 0 mm 2 mps 675 mmHg 42%
    18:00 +13°C° 0 mm 1 mps 675 mmHg 43%
    19:00 +10°C° 0 mm 2 mps 675 mmHg 47%
    20:00 +9°C° 0 mm 2 mps 675 mmHg 51%
    21:00 +8°C° 0 mm 2 mps 676 mmHg 55%
    22:00 +7°C° 0.1 mm 2 mps 676 mmHg 57%
    23:00 +8°C° 0.1 mm 1 mps 676 mmHg 59%

    Day after tomorrow, 25 April, Thursday

    Time Temperature Precipitation Wind Pressure Humidity
    00:00 +8°C° 0.1 mm 1 mps 676 mmHg 62%
    01:00 +8°C° 0.1 mm 1 mps 676 mmHg 63%
    02:00 +7°C° 0.1 mm 1 mps 676 mmHg 64%
    03:00 +7°C° 0.1 mm 1 mps 676 mmHg 65%
    04:00 +7°C° 0.1 mm 1 mps 676 mmHg 65%
    05:00 +7°C° 0.1 mm 1 mps 676 mmHg 65%
    06:00 +7°C° 0.1 mm 1 mps 676 mmHg 66%
    07:00 +8°C° 0.1 mm 1 mps 676 mmHg 61%
    08:00 +9°C° 0.1 mm 1 mps 676 mmHg 56%
    09:00 +11°C° 0.1 mm 1 mps 676 mmHg 51%
    10:00 +12°C° 0.1 mm 1 mps 676 mmHg 48%
    11:00 +12°C° 0.1 mm 1 mps 676 mmHg 46%
    12:00 +13°C° 0.1 mm 1 mps 675 mmHg 44%
    13:00 +14°C° 0.1 mm 1 mps 675 mmHg 43%
    14:00 +14°C° 0.1 mm 1 mps 675 mmHg 43%
    15:00 +15°C° 0.1 mm 1 mps 675 mmHg 42%
    16:00 +14°C° 0.1 mm 1 mps 675 mmHg 43%
    17:00 +14°C° 0.1 mm 1 mps 675 mmHg 44%
    18:00 +13°C° 0.1 mm 1 mps 675 mmHg 45%
    19:00 +12°C° 0 mm 1 mps 675 mmHg 49%
    20:00 +10°C° 0 mm 1 mps 675 mmHg 52%
    21:00 +9°C° 0 mm 1 mps 676 mmHg 56%
    22:00 +8°C° 0 mm 1 mps 675 mmHg 58%
    23:00 +8°C° 0 mm 1 mps 675 mmHg 60%

    26 April, Friday

    Time Temperature Precipitation Wind Pressure Humidity
    00:00 +8°C° 0 mm 1 mps 675 mmHg 61%
    01:00 +7°C° 0 mm 1 mps 675 mmHg 62%
    02:00 +7°C° 0 mm 1 mps 675 mmHg 63%
    03:00 +6°C° 0 mm 1 mps 675 mmHg 64%
    04:00 +7°C° 0 mm 1 mps 675 mmHg 64%
    05:00 +7°C° 0 mm 1 mps 675 mmHg 63%
    06:00 +7°C° 0 mm 1 mps 675 mmHg 63%
    07:00 +8°C° 0 mm 1 mps 675 mmHg 57%
    08:00 +10°C° 0 mm 1 mps 675 mmHg 51%
    09:00 +12°C° 0 mm 1 mps 675 mmHg 45%
    10:00 +13°C° 0 mm 1 mps 675 mmHg 42%
    11:00 +14°C° 0 mm 2 mps 675 mmHg 40%
    12:00 +15°C° 0 mm 2 mps 675 mmHg 38%
    13:00 +15°C° 0 mm 2 mps 674 mmHg 38%
    14:00 +15°C° 0 mm 2 mps 674 mmHg 37%
    15:00 +16°C° 0 mm 2 mps 674 mmHg 37%
    16:00 +15°C° 0 mm 2 mps 674 mmHg 38%
    17:00 +15°C° 0 mm 2 mps 674 mmHg 40%
    18:00 +14°C° 0 mm 1 mps 674 mmHg 41%
    19:00 +13°C° 0 mm 1 mps 674 mmHg 46%
    20:00 +11°C° 0 mm 1 mps 675 mmHg 51%
    21:00 +10°C° 0 mm 1 mps 675 mmHg 55%
    22:00 +9°C° 0 mm 1 mps 675 mmHg 58%
    23:00 +9°C° 0 mm 1 mps 675 mmHg 61%

    27 April, Saturday

    Time Temperature Precipitation Wind Pressure Humidity
    00:00 +8°C° 0 mm 2 mps 675 mmHg 64%
    01:00 +7°C° 0 mm 2 mps 675 mmHg 66%
    02:00 +7°C° 0 mm 2 mps 675 mmHg 68%
    03:00 +7°C° 0 mm 2 mps 675 mmHg 70%
    04:00 +7°C° 0 mm 2 mps 675 mmHg 70%
    05:00 +8°C° 0 mm 1 mps 675 mmHg 70%
    06:00 +8°C° 0 mm 1 mps 676 mmHg 70%
    07:00 +10°C° 0 mm 1 mps 675 mmHg 63%
    08:00 +11°C° 0 mm 1 mps 675 mmHg 56%
    09:00 +13°C° 0 mm 1 mps 675 mmHg 49%
    10:00 +14°C° 0 mm 2 mps 675 mmHg 47%
    11:00 +15°C° 0 mm 2 mps 675 mmHg 45%
    12:00 +16°C° 0 mm 3 mps 675 mmHg 42%
    13:00 +16°C° 0 mm 3 mps 675 mmHg 41%
    14:00 +17°C° 0 mm 3 mps 674 mmHg 39%
    15:00 +17°C° 0 mm 3 mps 674 mmHg 38%
    16:00 +17°C° 0 mm 2 mps 674 mmHg 39%
    17:00 +16°C° 0 mm 2 mps 674 mmHg 39%
    18:00 +15°C° 0 mm 2 mps 674 mmHg 40%
    19:00 +14°C° 0 mm 2 mps 674 mmHg 45%
    20:00 +12°C° 0 mm 2 mps 674 mmHg 51%
    21:00 +10°C° 0 mm 2 mps 675 mmHg 56%
    22:00 +10°C° 0 mm 2 mps 675 mmHg 59%
    23:00 +9°C° 0 mm 2 mps 675 mmHg 63%

    28 April, Sunday

    Time Temperature Precipitation Wind Pressure Humidity
    00:00 +9°C° 0 mm 2 mps 675 mmHg 66%
    01:00 +9°C° 0.1 mm 2 mps 674 mmHg 67%
    02:00 +8°C° 0.1 mm 2 mps 674 mmHg 68%
    03:00 +9°C° 0.1 mm 1 mps 674 mmHg 70%
    04:00 +9°C° 0 mm 1 mps 674 mmHg 68%
    05:00 +9°C° 0 mm 1 mps 674 mmHg 67%
    06:00 +9°C° 0 mm 1 mps 674 mmHg 66%
    07:00 +10°C° 0 mm 1 mps 673 mmHg 60%
    08:00 +12°C° 0 mm 1 mps 673 mmHg 54%
    09:00 +14°C° 0 mm 2 mps 673 mmHg 47%
    10:00 +15°C° 0 mm 2 mps 673 mmHg 45%
    11:00 +16°C° 0 mm 2 mps 672 mmHg 43%
    12:00 +17°C° 0 mm 2 mps 672 mmHg 41%
    13:00 +17°C° 0 mm 2 mps 672 mmHg 40%
    14:00 +18°C° 0 mm 2 mps 672 mmHg 39%
    15:00 +18°C° 0 mm 2 mps 671 mmHg 38%
    16:00 +18°C° 0.1 mm 2 mps 671 mmHg 38%
    17:00 +17°C° 0.1 mm 2 mps 671 mmHg 39%
    18:00 +17°C° 0.1 mm 2 mps 671 mmHg 40%
    19:00 +15°C° 0.2 mm 2 mps 671 mmHg 41%
    20:00 +14°C° 0.2 mm 1 mps 672 mmHg 43%
    21:00 +13°C° 0.2 mm 1 mps 672 mmHg 45%
    22:00 +12°C° 0.2 mm 1 mps 672 mmHg 47%
    23:00 +12°C° 0.2 mm 1 mps 672 mmHg 48%
    Show more